This is the latest recevied weather packets stored in our database for station/object KK7RJD. If no packets are shown the sender has not sent any weather packets the latest 10 day(s).
| Time | Temp. | Humidity | Pressure | Rain* | Wind** | Luminosity | Snow |
|---|---|---|---|---|---|---|---|
| 1777821024 | 12.78° C | 52% | 1015.8 hPa | 0 mm | - | 327 W/m² | - |
| 1777820720 | 12.22° C | 52% | 1015.9 hPa | 0 mm | - | 251 W/m² | - |
| 1777820416 | 12.22° C | 51% | 1015.9 hPa | 0 mm | - | 208 W/m² | - |
| 1777820114 | 12.22° C | 53% | 1015.9 hPa | 0 mm | - | 205 W/m² | - |
| 1777819811 | 12.22° C | 54% | 1016.2 hPa | 0 mm | - | 207 W/m² | - |
| 1777819509 | 11.67° C | 54% | 1016.1 hPa | 0 mm | - | 206 W/m² | - |
| 1777819206 | 11.67° C | 53% | 1016.1 hPa | 0 mm | - | 189 W/m² | - |
| 1777818902 | 11.67° C | 54% | 1016.1 hPa | 0 mm | - | 179 W/m² | - |
| 1777818598 | 11.67° C | 54% | 1016.1 hPa | 0 mm | - | 181 W/m² | - |
| 1777818296 | 11.11° C | 55% | 1016 hPa | 0 mm | - | 166 W/m² | - |
| 1777817992 | 10.56° C | 56% | 1016.1 hPa | 0 mm | - | 178 W/m² | - |
| 1777817690 | 10.56° C | 56% | 1016.2 hPa | 0 mm | - | 171 W/m² | - |
| 1777817386 | 10.56° C | 58% | 1016.4 hPa | 0 mm | - | 151 W/m² | - |
| 1777817083 | 10° C | 57% | 1016.1 hPa | 0 mm | - | 133 W/m² | - |
| 1777816779 | 10° C | 58% | 1016.4 hPa | 0 mm | - | 107 W/m² | - |
| 1777816477 | 10° C | 58% | 1016.2 hPa | 0 mm | - | 104 W/m² | - |
| 1777816174 | 10° C | 57% | 1016.4 hPa | 0 mm | - | 100 W/m² | - |
| 1777815872 | 9.44° C | 57% | 1016.2 hPa | 0 mm | - | 84 W/m² | - |
| 1777815569 | 9.44° C | 58% | 1016.2 hPa | 0 mm | - | 91 W/m² | - |
| 1777815267 | 9.44° C | 58% | 1016.1 hPa | 0 mm | - | 81 W/m² | - |
| 1777814962 | 8.89° C | 59% | 1016.1 hPa | 0 mm | - | 91 W/m² | - |
| 1777814659 | 8.89° C | 59% | 1016 hPa | 0 mm | - | 77 W/m² | - |
| 1777814356 | 8.89° C | 60% | 1015.9 hPa | 0 mm | - | 64 W/m² | - |
| 1777814053 | 8.89° C | 61% | 1015.9 hPa | 0 mm | - | 61 W/m² | - |
| 1777813750 | 8.89° C | 60% | 1015.9 hPa | 0 mm | - | 53 W/m² | - |
* Rain latest hour (hover to see other rain measurements)
** Current wind speed in m/s (hover to see current wind gust speed)